ENSGENBR

Guest
Details From ENSG - SOGNDAL Haukasen
To ENBR - Bergen Lufthavn Flesland
Flight Number -
Tags generated
Created
Modified
Stats Distance 77 nm / 142 km
Max Altitude 0 ft / 0 m
Waypoints 3
Social Downloads 1
Likes 0
Share VATSIM

Download

Looking for another format? Having issues loading an existing format? Contact us
Advertisement - Login to hide

Notes

Basic altitude profile: - Ascent Rate: 2500ft/min - Ascent Speed: 250kts - Cruise Altitude: 35000ft - Cruise Speed: 420kts - Descent Rate: 1500ft/min - Descent Speed: 250kts Options: - Use NATs: yes - Use PACOTS: yes - Use low airways: yes - Use high airways: yes

Route

ENSG FLE ENBR

ID Type Via Altitude Latitude Longitude Leg Dist Tot Dist Heading (true) Name
O ENSG APT - 0 ft / 0 m 61.15579˚ 7.13628˚ - 0 nm - SOGNDAL Haukasen
FLE VOR - 0 ft / 0 m 60.30004˚ 5.21359˚ 76 nm 76 nm 229° / 227° -
O ENBR APT - 0 ft / 0 m 60.29339˚ 5.21814˚ 0 nm 76 nm 161° / 161° Bergen Lufthavn Flesland

Altitude Profile

Advertisement - Login to hide

ENSG

Details ICAO ENSG (SOG)
Name SOGNDAL Haukasen
Region Norway
Timezone Europe/Oslo (UTC+2.0)
Stats Elevation 1,633 ft / 498 m (AMSL)
Location 61.155792° 7.136278°
Runways 1
Magnetic Variation 1.749° E

METAR

ENSG 240550Z 06004KT CAVOK 13/09 Q1028 RMK WIND 3806FT 16009KT

Decode

TAF

Not found

Departure Runways

ID Width Length Bearing (true) Bearing (mag) Surface Threshold Offset Overrun Length
06 90 ft / 27 m 3,631 ft / 1,107 m 59.27° 57.52° Asphalt 550 ft / 168 m 0 ft / 0 m
24 90 ft / 27 m 3,631 ft / 1,107 m 239.29° 237.54° Asphalt 680 ft / 207 m 0 ft / 0 m

ENBR

Details ICAO ENBR (BGO)
Name Bergen Lufthavn Flesland
Region Norway
Timezone Europe/Oslo (UTC+2.0)
Stats Elevation 165 ft / 50 m (AMSL)
Location 60.293388° 5.218140°
Runways 1
Magnetic Variation 0.920° E

METAR

ENBR 240620Z 21004KT 100V240 9999 FEW009 BKN012 09/08 Q1030 TEMPO BKN015 RMK WIND 1200FT 14005KT

Decode

TAF

TAF ENBR 240500Z 2406/2506 23005KT 9999 BKN010 PROB30 2406/2408 BKN008 BECMG 2408/2411 SCT010 PROB40 2410/2418 34010KT

Decode

Destination Runways

ID Width Length Bearing (true) Bearing (mag) Surface Threshold Offset Overrun Length
17 148 ft / 45 m 9,793 ft / 2,985 m 170.56° 169.64° Asphalt 886 ft / 270 m 0 ft / 0 m
35 148 ft / 45 m 9,793 ft / 2,985 m 350.57° 349.65° Asphalt 886 ft / 270 m 0 ft / 0 m

Approach Navaids

Runway Type Ident Frequency Range Bearing (true) Bearing (mag) Slope Elevation
17 Localiser BR 109.90 MHz 18 nm / 33 km 170.56° 169.64° - 165 ft / 50 m (AMSL)
17 Glidescope BR 109.90 MHz 10 nm / 19 km 170.56° 169.64° 3.10° 165 ft / 50 m (AMSL)
35 Localiser BG 110.50 MHz 18 nm / 33 km 350.55° 349.63° - 165 ft / 50 m (AMSL)
35 Glidescope BG 110.50 MHz 10 nm / 19 km 350.56° 349.64° 3.00° 165 ft / 50 m (AMSL)

Popular Alternatives